Location: Heidgraben
(53.7081°N, 9.6576°E)
Time: 04:02:59
(UTC+00:00)

RESURS DK-1 - Pass Details

Date: 05 July 2020
Orbit: 556 x 562 km, 69.9° (Epoch: 06 August)

Event Time Altitude Azimuth Distance (km) Brightness Sun altitude
Rises 22:32:04 0° 328° (NNW) 2,755 7.4 -12.7°
Reaches altitude 10° 22:34:31 10° 340° (NNW) 1,857 6.5 -12.8°
Maximum altitude 22:38:08 29° 41° (NE) 1,059 4.2 -12.9°
Drops below altitude 10° 22:41:46 10° 102° (ESE) 1,851 4.8 -13.0°
Enters shadow 22:43:22 - 111° (ESE) 2,428 5.3 -13.1°
